CZ-6A DEB, 54263

Orbit data source: Space-Track

CZ-6A DEB, 54263 is space debris in SSO originally from a launch on Fri, 11 Nov 2022 UTC launched from the Taiyaun Space Center, China (TSC). Debris objects in space refer to the collection of defunct objects orbiting the Earth. Examples of debris include non-operational satellites, rocket bodies, and fragments generated from explosions, collisions, or faulty payload assembly.

Loading next visibility...
Identifier
54263, 2022-151E
Orbit
SSO
Country
Flag of CNCN / PRC
Related business
Manufacturer
SAST
Mission
Spacecraft
Bus & Motor
Unknown
Mass
Unknown
Launch date (UTC)
2022-11-11 (3 years ago)
Launch vehicle
Unknown
Launch site
Taiyaun Space Center, China (TSC)
Object type
Payload
Rocket body
Debris
Shape & HBR
Unknown shape, 0.1 m
Radar Cross Section
Small (<0.1 m²)

Expand to show TLE details & history
Last TLE update: 11 hours ago

TLE from 11 hours ago
0 CZ-6A DEB
1 54263U 22151E   25352.26097138  .00000110  00000-0  15743-3 0  9999
2 54263  99.1356 285.6609 0303578  42.0382 320.3627 13.56429787153392
Epoch: 2025-12-18T06:15Z
TLE epoch observation values (Epoch: 2025-12-18T06:15:47.927Z)
Latitude
-0.00007°
Longitude
104.59219°
Altitude
880.735 km
Speed
7.497 km/s
True Right ascension
19h 02m 38s
True Declination
0° 00' 00"
Sunlit
Object was in daylight at epoch
Visualization orbit readout
Latitude
Unknown
Longitude
Unknown
Altitude
Unknown
Speed
Unknown
Apparent Right ascension
Unknown
Apparent Declination
Unknown
Sunlit
N/A
Visualization observer readout
Local Sidereal Time
16:18:17
Azimuth
Unknown
Elevation
Unknown
Doppler factor
Unknown
Orbital elements
Apogee altitude
1,271.335 km
Perigee altitude
820.577 km
Semi-major axis
7,424.093 km
Eccentricity
0.03036
Inclination
99.1356°
RAAN
285.6609°
Arg. of periapsis
42.0382°
True anomaly
318.07741°
Mean anomaly
320.3627°
Eccentric anomaly
319.22677°
Mean motion
3.39295 °/min
Orbital period
106.1 mins
BSTAR
0.00015743
Loading maneuver chart data...
Computing Atmospheric mass density...
Loading historical data...
Loading historical data...
Loading historical data...
Loading historical data...
Loading historical data...
Loading historical data...
Loading historical data...

Documentation

Showing up to 5 results
|